Wind_Speed
27 27 27 28 28 28 28 28 27 27 27 27 28 29 30 30 31 30 30 29 29 29 28 28 28 28 28 28 29 29 29 30 31 31 31 31 30 30
28 28 28 28 29 29 29 29 29 28 28 28 28 29 29 30 30 30 30 30 29 28 27 27 26 26 26 28 29 28 27 27 27 28 28 28 28 28
30 30 29 29 29 29 29 29 29 28 28 27 27 27 28 28 29 29 28 28 27 26 25 24 24 24 25 26 26 26 25 25 25 24 24 23 23 23
31 30 29 30 30 30 30 30 29 29 29 28 27 26 26 27 28 27 26 26 25 24 23 22 22 22 23 23 24 23 23 23 21 20 20 20 20 20
30 30 30 29 29 29 29 30 30 29 29 28 28 27 26 25 25 24 25 24 24 23 22 22 22 21 21 21 20 20 19 19 18 17 17 18 19 19
30 29 30 30 29 29 28 29 29 28 27 27 26 26 25 23 22 22 22 22 22 21 21 21 20 19 18 17 17 16 16 16 15 14 14 16 15 16
28 28 28 28 28 28 28 27 27 26 26 25 24 23 21 20 20 20 20 20 19 19 18 18 17 16 14 14 15 15 14 13 12 12 13 13 14 14
26 26 27 27 27 26 26 25 25 24 24 23 22 21 19 19 19 18 17 16 15 15 15 15 15 14 14 14 13 12 12 11 11 11 11 12 12 14
24 24 24 24 25 24 24 23 22 21 21 20 20 19 18 18 17 16 14 14 12 12 12 11 12 12 12 11 11 10 10 10 10 10 11 11 12 13
22 22 22 21 21 21 20 20 19 18 17 17 17 17 16 15 14 13 12 11 10 10 11 11 10 10 10 9 9 8 9 9 10 10 11 12 13 13
19 18 18 18 18 17 17 17 16 16 16 16 15 14 13 13 12 11 11 10 10 10 9 9 9 9 9 8 7 8 8 9 10 10 11 12 13 14
15 15 14 14 14 14 13 14 14 14 14 14 13 13 12 11 11 11 11 10 10 9 8 8 8 8 7 6 6 7 8 9 10 11 12 13 14 14
13 13 13 12 12 12 12 12 11 12 11 11 11 11 10 10 9 9 9 9 9 8 8 7 6 6 5 6 6 7 8 9 9 10 12 13 14 15
11 11 10 11 11 11 11 11 10 10 10 10 10 9 9 9 8 8 8 7 6 6 6 5 5 4 5 5 6 7 7 8 9 11 12 14 15 17
9 9 9 8 9 10 10 10 10 10 10 9 9 9 8 7 7 6 6 5 4 4 3 3 3 3 4 4 5 6 7 9 11 12 13 15 16 18
7 7 8 8 8 9 11 12 11 10 9 9 8 7 7 6 6 5 5 4 4 3 3 2 3 3 3 4 5 7 9 10 11 12 14 16 18 20
5 6 6 7 7 9 10 10 10 9 9 9 9 8 7 6 6 6 5 4 4 3 2 2 1 2 3 5 7 8 9 11 13 14 16 18 21 23
4 5 6 7 8 9 9 10 10 9 9 9 9 8 8 7 7 6 5 4 3 2 1 0 1 3 4 6 8 9 11 13 14 16 18 20 22 24
6 6 7 7 8 9 9 10 10 11 10 10 9 9 9 8 7 6 5 4 3 2 1 1 3 4 6 7 9 11 13 14 16 18 20 22 24 26
7 7 8 9 10 10 11 11 11 11 11 10 10 10 9 8 7 7 5 4 3 2 2 3 4 6 8 10 11 13 15 16 18 19 21 24 26 28
9 10 11 11 11 11 12 12 12 11 11 11 10 10 9 8 7 5 4 3 2 2 3 5 7 8 10 11 13 14 16 18 20 22 24 26 28 30
11 11 12 11 12 12 12 12 13 12 11 11 10 9 8 6 5 4 3 2 2 3 5 7 8 10 12 13 14 16 17 19 21 24 26 29 31 33
11 12 12 12 12 12 12 13 12 11 10 9 8 7 6 5 4 3 2 2 4 6 7 9 10 12 14 15 17 18 19 21 23 26 28 31 33 35
Wind_Direction
273 273 273 274 275 275 277 278 278 278 278 278 275 274 276 277 277 277 277 278 277 279 280 282 283 279 277 279 279 279 280 279 281 282 282 283 283 284
273 272 272 272 273 275 275 276 277 277 278 279 278 278 276 276 275 275 276 276 277 278 279 282 283 282 278 279 281 282 282 285 286 286 284 282 283 285
272 272 272 272 272 274 274 274 275 277 278 278 279 279 277 276 275 274 274 275 276 277 279 280 280 280 277 278 279 281 285 287 288 289 289 287 286 289
272 271 271 272 271 273 272 271 273 275 276 276 277 278 277 275 274 273 274 274 276 278 278 278 279 281 282 283 283 282 286 288 291 294 293 292 290 292
273 272 271 271 270 271 271 270 271 272 273 273 273 274 274 276 273 271 272 273 275 277 278 278 279 281 283 284 287 289 290 292 293 296 296 297 295 295
272 272 270 270 269 269 270 270 269 270 271 271 271 272 272 273 270 270 270 272 273 274 276 277 279 282 286 287 288 289 292 294 293 294 298 298 299 302
273 271 270 269 269 268 269 269 268 268 269 269 270 270 270 269 267 270 271 270 269 271 274 275 279 283 287 289 290 291 295 293 293 296 299 300 302 305
273 271 270 269 267 266 266 266 266 265 264 264 264 265 265 264 264 266 267 268 268 269 273 275 279 284 287 288 289 291 292 291 297 299 300 301 302 304
272 271 270 268 266 265 263 263 262 260 259 258 259 260 261 261 261 261 260 263 265 268 274 277 281 285 288 287 285 285 288 293 297 299 300 302 306 309
273 270 268 266 266 264 260 259 258 254 251 254 255 255 255 256 256 255 253 258 263 270 275 278 280 282 284 284 282 285 290 293 295 298 301 305 308 309
272 270 268 264 262 257 253 251 250 248 247 247 245 244 246 247 250 249 250 255 262 266 268 272 277 277 278 279 284 290 294 295 298 301 304 307 310 311
272 267 265 261 254 249 244 240 238 237 238 237 234 235 237 238 240 244 250 253 254 259 264 267 269 273 276 280 288 292 294 297 301 304 307 310 312 313
265 262 258 254 250 244 236 231 228 226 224 224 223 223 225 228 233 240 243 244 250 257 258 258 260 263 273 285 294 297 301 305 308 312 313 314 314 315
258 255 250 241 237 231 223 220 217 213 210 213 215 217 219 224 232 237 240 249 251 251 248 249 250 260 274 285 297 306 312 316 317 317 318 319 320 319
255 251 239 227 219 213 205 201 202 204 202 202 208 212 211 212 217 220 226 230 224 225 228 233 247 262 278 297 311 319 321 321 322 323 323 323 323 322
242 230 215 205 202 195 190 188 191 191 191 191 192 193 190 187 188 192 194 196 197 205 215 232 246 267 297 317 323 323 323 324 326 328 328 327 326 326
206 203 199 188 182 179 177 179 185 186 184 182 182 181 183 181 177 172 171 173 178 188 203 216 264 310 324 325 326 328 331 332 331 331 331 331 330 329
159 166 171 170 170 172 174 176 176 176 174 173 170 169 168 163 161 158 159 159 162 162 152 76 341 331 330 333 334 335 334 333 332 331 331 331 331 331
143 151 157 159 159 160 161 163 164 163 161 160 160 159 155 151 153 154 152 147 141 131 98 10 350 344 343 342 339 335 335 334 334 333 333 333 332 331
128 137 144 146 144 145 145 145 149 152 152 152 151 149 149 149 146 142 138 132 123 97 38 9 354 346 342 340 338 336 335 334 333 332 332 332 333 332
121 124 133 137 136 140 141 145 147 145 144 143 141 141 140 137 136 138 135 126 101 50 12 357 348 343 340 338 337 336 335 334 333 332 332 332 332 331
119 120 122 129 134 138 141 143 143 140 138 136 134 133 133 134 135 133 124 101 40 2 351 345 341 338 337 335 334 333 333 332 332 332 332 332 332 332
112 116 120 123 128 132 134 133 131 133 133 131 128 127 128 130 130 124 97 17 351 346 343 341 339 338 337 336 335 334 332 330 331 332 332 331 331 330
Height
5802 5803 5804 5805 5805 5805 5806 5806 5807 5807 5808 5808 5807 5807 5807 5808 5808 5808 5809 5809 5809 5809 5808 5809 5808 5808 5808 5808 5808 5808 5806 5806 5805 5804 5803 5801 5800 5799
5794 5795 5796 5797 5797 5798 5798 5799 5799 5800 5800 5800 5800 5800 5800 5800 5800 5801 5801 5801 5802 5802 5802 5802 5801 5801 5802 5802 5802 5801 5800 5799 5797 5796 5795 5794 5793 5792
5786 5787 5788 5789 5789 5790 5791 5791 5791 5792 5792 5793 5792 5792 5792 5792 5792 5793 5793 5794 5795 5795 5795 5795 5795 5795 5795 5795 5794 5794 5793 5792 5790 5789 5788 5787 5786 5785
5777 5778 5779 5780 5781 5782 5782 5783 5783 5784 5785 5785 5785 5785 5785 5785 5786 5786 5787 5788 5789 5789 5789 5789 5789 5789 5789 5788 5788 5787 5786 5785 5784 5782 5782 5781 5780 5778
5768 5769 5770 5771 5772 5773 5774 5774 5775 5776 5776 5777 5778 5778 5778 5779 5779 5780 5781 5781 5782 5782 5783 5783 5783 5783 5783 5782 5781 5781 5780 5779 5778 5777 5776 5775 5774 5772
5759 5760 5761 5762 5763 5764 5765 5766 5767 5768 5769 5769 5770 5771 5771 5772 5772 5773 5775 5775 5776 5777 5777 5777 5777 5777 5777 5776 5776 5775 5774 5774 5773 5772 5771 5770 5769 5767
5750 5751 5752 5753 5754 5756 5757 5758 5759 5760 5761 5762 5763 5764 5765 5766 5767 5768 5769 5769 5770 5771 5771 5772 5772 5772 5771 5771 5771 5770 5770 5769 5768 5768 5767 5766 5765 5763
5742 5743 5744 5745 5746 5748 5749 5750 5751 5753 5754 5755 5757 5758 5759 5760 5761 5762 5763 5764 5765 5766 5766 5767 5767 5767 5767 5767 5766 5766 5765 5765 5764 5764 5763 5762 5760 5759
5735 5735 5736 5737 5738 5740 5741 5743 5744 5746 5748 5750 5751 5753 5754 5755 5756 5757 5758 5760 5761 5761 5762 5763 5763 5763 5763 5762 5762 5762 5762 5761 5761 5760 5759 5758 5756 5754
5728 5728 5729 5730 5732 5733 5735 5736 5738 5740 5742 5744 5746 5748 5749 5750 5752 5753 5754 5756 5757 5758 5758 5759 5759 5759 5759 5759 5759 5758 5758 5758 5757 5756 5755 5754 5752 5750
5721 5722 5723 5724 5726 5727 5729 5731 5733 5735 5738 5740 5741 5743 5745 5746 5748 5750 5751 5752 5753 5754 5755 5755 5756 5756 5756 5756 5756 5755 5755 5754 5754 5752 5751 5750 5748 5746
5717 5717 5718 5720 5721 5723 5725 5727 5729 5732 5734 5736 5738 5740 5741 5743 5745 5746 5748 5749 5750 5751 5752 5752 5752 5753 5753 5753 5753 5752 5752 5751 5750 5749 5747 5746 5744 5742
5713 5714 5715 5716 5717 5719 5721 5724 5726 5728 5731 5733 5735 5737 5739 5740 5742 5744 5745 5746 5747 5748 5748 5749 5749 5750 5750 5750 5750 5750 5749 5748 5747 5745 5744 5742 5740 5738
5710 5711 5711 5713 5715 5717 5719 5721 5724 5726 5729 5731 5733 5735 5737 5738 5740 5741 5742 5743 5744 5745 5746 5746 5747 5748 5748 5748 5748 5747 5746 5745 5744 5742 5740 5738 5736 5733
5707 5708 5709 5711 5713 5715 5717 5720 5723 5725 5727 5729 5731 5733 5735 5736 5738 5739 5740 5741 5742 5743 5744 5745 5745 5746 5746 5746 5745 5745 5744 5742 5741 5739 5737 5735 5732 5729
5705 5706 5707 5709 5711 5713 5716 5719 5722 5724 5726 5728 5730 5732 5734 5735 5736 5738 5739 5741 5742 5743 5743 5744 5744 5744 5744 5744 5743 5742 5741 5740 5738 5736 5733 5730 5727 5724
5705 5706 5707 5709 5711 5713 5715 5718 5721 5723 5725 5728 5730 5731 5733 5735 5736 5737 5739 5740 5741 5742 5743 5743 5743 5743 5742 5742 5741 5740 5738 5736 5734 5732 5729 5726 5723 5719
5705 5706 5708 5710 5711 5713 5716 5718 5721 5723 5725 5727 5729 5731 5733 5735 5736 5738 5739 5740 5741 5742 5742 5742 5742 5742 5741 5740 5739 5737 5735 5733 5731 5728 5725 5722 5719 5714
5707 5708 5709 5711 5712 5715 5717 5719 5721 5723 5726 5728 5730 5732 5734 5735 5737 5738 5739 5740 5741 5741 5742 5741 5741 5740 5740 5738 5737 5734 5732 5730 5727 5724 5721 5717 5713 5709
5708 5709 5711 5712 5714 5716 5718 5720 5723 5725 5727 5729 5731 5733 5734 5736 5738 5739 5740 5741 5741 5741 5741 5741 5740 5739 5737 5736 5734 5732 5729 5726 5723 5720 5716 5712 5708 5703
5711 5712 5713 5715 5717 5719 5721 5723 5725 5727 5729 5731 5733 5734 5736 5737 5739 5740 5740 5741 5741 5741 5740 5740 5738 5737 5735 5733 5731 5729 5726 5722 5718 5715 5711 5707 5702 5697
5715 5716 5717 5718 5720 5722 5723 5725 5727 5729 5731 5733 5734 5736 5737 5738 5739 5740 5740 5741 5741 5740 5739 5738 5736 5735 5733 5731 5728 5725 5722 5718 5714 5710 5705 5700 5694 5689
5719 5719 5721 5722 5723 5725 5727 5728 5730 5732 5734 5735 5736 5737 5738 5739 5740 5740 5740 5740 5740 5739 5737 5736 5734 5732 5729 5727 5724 5721 5717 5714 5710 5705 5700 5694 5688 5682